Torna al catalogo

EPIC ATHENA

AttivoScienzaSSO
NORAD 64871·PAYLOAD·🇺🇸 United States

Lanciato Jul 23, 2025 da Vandenberg Space Force Base

Loading…

Prossimi Passaggi (prossime 24 ore)

TLE

AggiornatoSource: Space-Track

Epoca: Sep 14, 2026, 14:25 UTC

1 64871U 25154C   26257.60100059  .00001416  00000-0  13682-3 0  9991
2 64871  97.6583 319.2652 0005401 317.2392  42.8408 14.94364998 62361

Traccia EPIC ATHENA in tempo reale con AllMySat

Download on the App Store